Location: Tehachapi Municipal Airport
(35.1300°N, 118.4400°W)
Time: 09:56:22
(UTC-08:00)

BREEZE M DEB (TANK) - Visible Passes

Search period start: 06 December 2016 00:00
Search period end: 16 December 2016 00:00
Orbit: 288 x 12009 km, 49.5° (Epoch: 05 December)

Date Brightness Start Highest point End Pass type
(mag) Time Alt. Az. Time Alt. Az. Time Alt. Az.
06 Dec 8.3 00:39:08 16° SSW 00:39:08 16° SSW 00:57:01 10° SSW visible
06 Dec 4.3 19:26:00 10° NW 20:00:50 - SE 19:30:18 60° N visible
06 Dec 8.2 23:53:09 21° SSW 23:53:09 21° SSW 00:14:30 10° S visible
07 Dec 4.3 18:40:11 10° NW 18:44:43 44° NE 18:46:07 41° ENE visible
07 Dec 7.3 23:07:00 23° S 23:07:00 23° S 23:28:12 10° S visible
08 Dec 4.5 17:54:27 10° NNW 17:58:11 28° NE 18:02:01 21° ENE visible
08 Dec 6.7 21:54:11 10° WNW 22:20:38 24° S 22:39:24 10° SSE visible
09 Dec 4.6 17:08:51 10° NNW 17:11:34 18° NNE 17:16:33 10° ENE visible
09 Dec 5.9 21:07:34 10° WNW 21:34:00 23° SSE 21:48:54 10° SSE visible
10 Dec 5.0 20:21:13 10° WNW 20:47:01 20° SSE 20:57:16 10° SE visible
11 Dec 4.5 19:35:03 10° NW 19:40:43 87° SW 20:05:03 10° SE visible
11 Dec 7.9 23:51:30 14° SW 23:53:09 15° SW 00:10:57 10° SSW visible
12 Dec 4.1 18:49:01 10° NW 18:53:53 68° NE 19:12:42 10° ESE visible
12 Dec 7.2 22:52:43 10° W 23:03:41 21° SW 23:29:50 10° S visible
13 Dec 4.1 18:03:06 10° NW 18:07:16 45° NE 18:20:38 10° ESE visible
13 Dec 7.0 22:04:27 10° W 22:14:35 28° SW 22:44:16 10° S visible
14 Dec 4.3 17:17:17 10° NNW 17:20:44 28° NE 17:29:07 10° E visible
14 Dec 6.5 21:17:07 10° WNW 21:25:55 36° SW 21:56:08 10° SSE visible
15 Dec 5.9 20:30:18 10° WNW 20:37:43 46° SW 21:06:19 10° SSE visible
